Flag for Canada Weather past 2 weeks in Sherbrooke, Quebec, Canada

Now
70 °F

Partly sunny.


Feels Like: 70 °F
Forecast: 60 / 84 °F
Wind: 2 mph from South

Location: Sherbrooke

Current Time: Jul 6, 2015 at 10:30:15 PM

Latest Report: Jul 6, 2015 at 9:00 PM


Visibility: 9 mi

Pressure: 30.07 "Hg

Humidity: 78%

Dew point: 63 °F

Location of SherbrookeLocation

Historic Weather in Sherbrooke — Graph

°F

Sherbrooke temperature yesterday

Maximum temperature yesterday: 77 °F (at 4:00 PM)
Minimum temperature yesterday: 54 °F (at 5:02 AM)
Average temperature yesterday: 66 °F

Past Weeks' High & Low Weather Summary

 TemperatureHumidityPressure
High81 °F (Jul 6, 3:00 PM)100% (Jun 25, 5:00 AM)30.19 "Hg (Jun 25, 5:00 AM)
Low43 °F (Jun 26, 5:00 AM)38% (Jun 26, 4:00 PM)29.56 "Hg (Jun 23, 6:00 PM)
Average62 °F78%29.92 "Hg
* Reported Jun 21 9:00 PM — Jul 6 9:00 PM, Sherbrooke, Weather by CustomWeather, © 2015

Note: Actual official high and low records may vary slightly from our data, if they occured in-between our weather recording intervals... More about our weather records

Advertising

Sherbrooke weather history for previous 24 hours

 ConditionsComfort  
Time TempWeatherWind HumidityBarometerVisibility
9:00 PM
Mon, Jul 6
70 °FPartly sunny.2 mph78%30.07 "Hg9 mi
8:00 PM73 °FPartly sunny.No wind78%30.06 "Hg9 mi
7:00 PM77 °FSunny.2 mph69%30.06 "Hg9 mi
6:00 PM79 °FSunny.5 mph54%30.06 "Hg9 mi
5:00 PM81 °FSunny.7 mph45%30.08 "Hg9 mi
4:00 PM81 °FSunny.7 mph48%30.10 "Hg9 mi
3:00 PM81 °FPassing clouds.7 mph48%30.12 "Hg9 mi
2:00 PM79 °FScattered clouds.7 mph54%30.13 "Hg9 mi
1:00 PM77 °FScattered clouds.3 mph57%30.15 "Hg9 mi
12:00 PM77 °FScattered clouds.7 mph61%30.16 "Hg9 mi
11:00 AM75 °FSunny.2 mph65%30.18 "Hg9 mi
10:00 AM72 °FScattered clouds.2 mph78%30.19 "Hg9 mi
9:00 AM68 °FPassing clouds.3 mph78%30.18 "Hg9 mi
8:00 AM64 °FSunny.No wind83%30.18 "Hg9 mi
7:00 AM59 °FPassing clouds.2 mph94%30.17 "Hg9 mi
6:00 AM55 °FClear.3 mph94%30.16 "Hg9 mi
5:00 AM55 °FClear.5 mph94%30.13 "Hg8 mi
4:04 AM55 °FFog.2 mph94%30.13 "Hg5 mi
3:48 AM55 °FClear.3 mph94%30.13 "Hg8 mi
3:01 AM57 °FFog.2 mph94%30.14 "Hg3 mi
2:00 AM59 °FFog.2 mph94%30.13 "Hg4 mi
1:59 AM59 °FFog.2 mph94%30.13 "Hg4 mi
1:00 AM57 °FClear.2 mph94%30.13 "Hg9 mi
12:55 AM57 °FFog.2 mph100%30.13 "Hg6 mi
12:00 AM61 °FClear.2 mph88%30.13 "Hg9 mi
11:00 PM
Sun, Jul 5
63 °FClear.3 mph88%30.13 "Hg9 mi
10:00 PM63 °FPassing clouds.No wind94%30.11 "Hg7 mi
Weather by CustomWeather, © 2015

See weather overviewHow to use our weather pages